Location: Clinton NY
(43.0598°N, 75.3602°W)
Time: 12:21:16
(UTC-04:00)

ISS - All Passes

Search period start: 23 March 2017 00:00
Search period end: 02 April 2017 00:00
Orbit: 399 x 409 km, 51.6° (Epoch: 24 March)

Date Brightness Start Highest point End Pass type
(mag) Time Alt. Az. Time Alt. Az. Time Alt. Az.
23 Mar - 00:47:31 10° WNW 00:50:16 24° NNW 00:53:01 10° NE night (unlit)
23 Mar - 02:25:07 10° NW 02:27:32 18° N 02:29:58 10° NE night (unlit)
23 Mar - 04:01:31 10° NW 04:04:39 39° NNE 04:07:48 10° E visible
23 Mar - 05:38:06 10° WNW 05:41:05 31° SW 05:44:03 10° SSE visible
23 Mar - 22:18:03 10° SW 22:21:11 45° SE 22:24:20 10° ENE night (unlit)
23 Mar - 23:54:46 10° W 23:57:45 31° NNW 00:00:44 10° NE night (unlit)
24 Mar - 01:32:34 10° NW 01:34:56 18° N 01:37:18 10° NE night (unlit)
24 Mar - 03:09:16 10° NW 03:12:10 28° NNE 03:15:05 10° E night (unlit)
24 Mar - 04:45:34 10° WNW 04:48:50 59° SW 04:52:05 10° SE visible
24 Mar - 21:26:15 10° SSW 21:28:57 24° SE 21:31:40 10° E night (unlit)
24 Mar - 23:02:06 10° WSW 23:05:16 46° NNW 23:08:28 10° NE night (unlit)
25 Mar - 00:39:52 10° NW 00:42:19 19° N 00:44:47 10° NE night (unlit)
25 Mar - 02:16:57 10° NW 02:19:36 22° NNE 02:22:17 10° ENE night (unlit)
25 Mar - 03:53:11 10° NW 03:56:30 76° NNE 03:59:48 10° ESE night (unlit)
25 Mar - 05:30:45 10° W 05:32:34 14° SW 05:34:23 10° SSW visible
25 Mar - 20:35:10 10° SSE 20:36:48 13° SE 20:38:27 10° E visible
25 Mar - 22:09:36 10° WSW 22:12:51 79° NNW 22:16:08 10° NE night (unlit)
25 Mar - 23:47:03 10° WNW 23:49:43 22° NNW 23:52:22 10° NE night (unlit)
26 Mar - 01:24:33 10° NW 01:27:00 19° N 01:29:28 10° NE night (unlit)
26 Mar - 03:00:52 10° NW 03:04:04 45° NNE 03:07:15 10° ESE night (unlit)
26 Mar - 04:37:37 10° WNW 04:40:24 25° SW 04:43:11 10° SSE night (unlit)
26 Mar - 21:17:18 10° SW 21:20:30 56° SE 21:23:43 10° ENE visible
26 Mar - 22:54:15 10° W 22:57:08 28° NNW 23:00:03 10° NE night (unlit)
27 Mar - 00:32:00 10° NW 00:34:22 18° N 00:36:44 10° NE night (unlit)
27 Mar - 02:08:35 10° NW 02:11:33 31° NNE 02:14:33 10° E night (unlit)
27 Mar - 03:44:57 10° WNW 03:48:08 47° SW 03:51:19 10° SE night (unlit)
27 Mar - 20:25:20 10° SSW 20:28:12 29° SE 20:31:07 10° ENE visible
27 Mar - 22:01:30 10° W 22:04:36 40° NNW 22:07:44 10° NE visible
27 Mar - 23:39:18 10° NW 23:41:42 18° N 23:44:07 10° NE night (unlit)
28 Mar - 01:16:15 10° NW 01:18:59 23° NNE 01:21:43 10° ENE night (unlit)
28 Mar - 02:52:29 10° WNW 02:55:47 88° SW 02:59:05 10° SE night (unlit)
28 Mar - 04:30:41 10° WSW 04:31:47 11° SW 04:32:53 10° SSW night (unlit)
28 Mar - 19:33:53 10° S 19:35:59 16° SE 19:38:07 10° E daylight
28 Mar - 21:08:53 10° WSW 21:12:07 65° NNW 21:15:23 10° NE visible
28 Mar - 22:46:29 10° WNW 22:49:04 21° N 22:51:38 10° NE visible
29 Mar - 00:23:51 10° NW 00:26:21 20° N 00:28:52 10° ENE night (unlit)
29 Mar - 02:00:07 10° NW 02:03:21 53° NNE 02:06:35 10° ESE night (unlit)
29 Mar - 03:37:03 10° W 03:39:37 21° SW 03:42:08 10° S night (unlit)
29 Mar - 20:16:29 10° SW 20:19:43 70° SE 20:22:58 10° ENE visible
29 Mar - 21:53:37 10° WNW 21:56:25 25° NNW 21:59:15 10° NE visible
29 Mar - 23:31:18 10° NW 23:33:41 18° N 23:36:03 10° NE night (unlit)
30 Mar - 01:07:46 10° NW 01:10:50 34° NNE 01:13:53 10° E night (unlit)
30 Mar - 02:44:14 10° WNW 02:47:19 38° SW 02:50:24 10° SSE night (unlit)
30 Mar - 19:24:21 10° SSW 19:27:22 36° SE 19:30:24 10° ENE daylight
30 Mar - 21:00:48 10° W 21:03:50 35° NNW 21:06:53 10° NE visible
30 Mar - 22:38:37 10° NW 22:40:59 18° N 22:43:21 10° NE visible
31 Mar - 00:15:25 10° NW 00:18:14 25° NNE 00:21:03 10° ENE night (unlit)
31 Mar - 01:51:41 10° WNW 01:54:57 72° SW 01:58:14 10° SE night (unlit)
31 Mar - 18:32:39 10° S 18:35:05 20° SE 18:37:32 10° E daylight
31 Mar - 20:08:06 10° WSW 20:11:17 54° NNW 20:14:31 10° NE visible
31 Mar - 21:45:48 10° WNW 21:48:17 20° N 21:50:48 10° NE visible
31 Mar - 23:23:01 10° NW 23:25:34 21° N 23:28:09 10° ENE visible
01 Apr - 00:59:14 10° NW 01:02:31 64° NNE 01:05:47 10° ESE night (unlit)
01 Apr - 02:36:26 10° W 02:38:40 17° SW 02:40:53 10° S night (unlit)
01 Apr - 17:42:07 10° SE 17:42:52 11° SE 17:43:37 10° ESE daylight
01 Apr - 19:15:34 10° SW 19:18:49 86° SSE 19:22:06 10° ENE daylight
01 Apr - 20:52:53 10° WNW 20:55:36 23° NNW 20:58:19 10° NE visible
01 Apr - 22:30:29 10° NW 22:32:53 18° N 22:35:16 10° NE visible
